Fort Sill, OK

6:12 PM CDT on April 28, 2017 (GMT -0500)
Post Army Air Field

Weather History for KFSI - November, 2012

Change the Weather History Date:

Friday, November 23, 2012

  Actual Average Record
Temperature  
Mean Temperature 48 °F -  
Max Temperature 59 °F 59 °F 79 °F (1965)
Min Temperature 37 °F 34 °F 20 °F (1975)
Degree Days  
Heating Degree Days 17    
Moisture  
Dew Point 26 °F    
Average Humidity 46    
Maximum Humidity 60    
Minimum Humidity 28    
Precipitation  
Precipitation 0.00 in - - ()
Sea Level Pressure  
Sea Level Pressure 30.43 in    
Wind  
Wind Speed 16 mph (North)    
Max Wind Speed 28 mph    
Max Gust Speed 34 mph    
Visibility 7 miles    
Events      
Averages and records for this station are not official NWS values.
T = Trace of Precipitation, MM = Missing Value Source: NWS Daily Summary

Daily Weather History Graph

Daily Weather History Graph

Search for Another Location

Airport or City:

Trip Planner

Search our weather history database for the weather conditions in past years. The results will help you decide how hot, cold, wet, or windy it might be!

Date:

Astronomy

Nov. 23, 2012 Rise Set
Actual Time 7:15 AM CST 5:24 PM CST
Civil Twilight 6:48 AM CST 5:51 PM CST
Nautical Twilight 6:17 AM CST 6:22 PM CST
Astronomical Twilight 5:47 AM CST 6:52 PM CST
Moon 2:31 PM CST (11/23) 2:45 AM CST (11/23)
Length of Visible Light 11h 03m
Length of Day
10h 09m
Waxing Gibbous, 80% of the Moon is Illuminated
Nov 23
Waxing Gibbous
Nov 28
Full
Dec 6
Last Quarter
Dec 13
New
Dec 19
First Quarter

Hourly Weather History & Observations

Time (CST) Temp. Windchill Dew Point Humidity Pressure Visibility Wind Dir Wind Speed Gust Speed Precip Events Conditions
12:55 AM 59.0 °F - 37.4 °F 45% 30.19 in 10.0 mi NNE 27.6 mph 34.5 mph N/A   Overcast
1:55 AM 55.9 °F - 36.7 °F 48% 30.22 in 10.0 mi NNE 21.9 mph 32.2 mph N/A   Clear
2:55 AM 54.5 °F - 34.9 °F 48% 30.25 in 10.0 mi NNE 23.0 mph - N/A   Clear
3:55 AM 52.9 °F - 31.6 °F 44% 30.28 in 10.0 mi NNE 23.0 mph 33.4 mph N/A   Clear
4:55 AM 51.8 °F - 32.7 °F 48% 30.32 in 10.0 mi NNE 18.4 mph - N/A   Clear
5:55 AM 50.0 °F - 33.4 °F 53% 30.35 in 10.0 mi NNE 19.6 mph - N/A   Clear
6:55 AM 47.8 °F - 34.3 °F 60% 30.40 in 10.0 mi NNE 16.1 mph - N/A   Clear
7:55 AM 46.2 °F 39.0 °F 32.5 °F 59% 30.43 in 10.0 mi NNE 18.4 mph 23.0 mph N/A   Clear
8:55 AM 48.9 °F - 28.0 °F 44% 30.47 in 10.0 mi NNE 17.3 mph 27.6 mph N/A   Clear
9:55 AM 52.2 °F - 25.0 °F 35% 30.49 in 10.0 mi NE 18.4 mph 26.5 mph N/A   Clear
10:55 AM 53.8 °F - 25.9 °F 34% 30.51 in 10.0 mi NE 19.6 mph - N/A   Clear
11:55 AM 55.4 °F - 25.2 °F 31% 30.50 in 10.0 mi NNE 16.1 mph 24.2 mph N/A   Clear
12:55 PM 56.5 °F - 24.1 °F 29% 30.48 in 10.0 mi NNE 19.6 mph 24.2 mph N/A   Clear
1:55 PM 57.0 °F - 24.6 °F 29% 30.47 in 10.0 mi NNE 16.1 mph - N/A   Clear
2:55 PM 56.7 °F - 24.3 °F 29% 30.46 in 10.0 mi North 16.1 mph 25.3 mph N/A   Clear
3:55 PM 55.6 °F - 22.6 °F 28% 30.46 in 10.0 mi North 18.4 mph 21.9 mph N/A   Clear
4:55 PM 52.9 °F - 23.0 °F 31% 30.45 in 10.0 mi NNE 12.7 mph - N/A   Clear
5:55 PM 47.1 °F - 23.2 °F 39% 30.46 in 7.0 mi North 8.1 mph - N/A   Clear
6:55 PM 46.8 °F - 22.6 °F 39% 30.47 in 10.0 mi North 5.8 mph - N/A   Clear
7:55 PM 43.3 °F 41.7 °F 23.4 °F 45% 30.47 in 10.0 mi NNE 3.5 mph - N/A   Clear
8:55 PM 41.4 °F - 23.7 °F 50% 30.47 in 10.0 mi Calm Calm - N/A   Clear
9:55 PM 41.5 °F 37.8 °F 23.4 °F 49% 30.47 in 10.0 mi North 5.8 mph - N/A   Clear
10:08 PM 41.0 °F 35.8 °F 23.0 °F 49% 30.47 in 3.0 mi North 8.1 mph - N/A   Haze
10:26 PM 39.2 °F 35.0 °F 23.0 °F 52% 30.47 in 2.5 mi North 5.8 mph - N/A   Haze
10:36 PM 37.4 °F - 24.8 °F 60% 30.47 in 3.0 mi Calm Calm - N/A   Haze
10:55 PM 37.9 °F - 22.8 °F 55% 30.47 in 9.0 mi Calm Calm - N/A   Clear
11:12 PM 39.2 °F - 23.0 °F 52% 30.47 in 2.5 mi Calm Calm - N/A   Haze
11:16 PM 39.2 °F 37.0 °F 23.0 °F 52% 30.46 in 2.0 mi NNW 3.5 mph - N/A   Haze
11:18 PM 39.2 °F 35.9 °F 23.0 °F 52% 30.46 in 1.8 mi NW 4.6 mph - N/A   Haze
11:19 PM 39.2 °F 35.9 °F 23.0 °F 52% 30.46 in 1.8 mi NNW 4.6 mph - N/A   Haze
11:22 PM 39.2 °F 35.9 °F 23.0 °F 52% 30.46 in 1.5 mi NNW 4.6 mph - N/A   Haze
11:36 PM 39.2 °F 37.0 °F 23.0 °F 52% 30.46 in 1.8 mi NNW 3.5 mph - N/A   Haze
11:44 PM 37.4 °F 33.8 °F 23.0 °F 56% 30.46 in 2.0 mi NNW 4.6 mph - N/A   Haze
11:46 PM 37.4 °F 33.8 °F 23.0 °F 56% 30.46 in 1.8 mi NNW 4.6 mph - N/A   Haze
11:53 PM 39.2 °F 35.9 °F 21.2 °F 49% 30.45 in 1.5 mi NNW 4.6 mph - N/A   Haze
11:55 PM 39.2 °F 35.9 °F 21.6 °F 49% 30.45 in 1.5 mi NNW 4.6 mph - N/A   Haze